Temperature
3 3 4 4 4 4 5 5 5 5 5 5 5 5 5 5 5 5 5 5 5 5 5 5 5 5 5 5 5 5 5 5 5 5 5 5 6 6 6 6 7 7 7
3 3 3 3 4 4 4 4 4 4 5 5 4 4 5 4 4 4 4 5 5 5 5 4 5 5 5 5 5 5 5 5 5 5 4 4 5 5 6 6 6 6 6
2 2 2 2 3 3 3 4 4 4 4 4 4 4 4 4 4 4 4 4 4 4 4 4 4 4 4 4 4 4 4 4 4 4 4 4 4 4 5 5 5 6 6
2 2 2 2 2 2 3 3 3 3 3 3 3 3 3 3 3 3 3 3 3 3 3 3 3 3 3 3 3 4 4 4 4 4 4 4 4 4 3 4 4 5 5
1 1 1 1 1 2 2 2 2 2 2 2 3 3 3 3 3 2 2 2 2 2 2 3 3 3 3 3 3 3 3 3 3 3 3 3 3 3 3 3 4 4 4
1 1 1 1 1 1 1 1 2 2 2 2 2 2 2 2 2 2 2 1 1 2 2 2 2 2 2 2 2 2 3 3 3 3 3 3 3 3 3 3 3 3 3
0 0 0 0 0 0 1 1 1 1 1 1 1 1 1 1 1 1 1 1 1 1 1 1 1 1 1 1 2 2 2 2 2 2 2 2 2 2 2 2 2 2 2
-0 -1 -1 -1 -0 -0 -0 0 0 -0 -0 -0 0 -0 -0 0 0 0 0 0 0 0 0 0 1 1 1 1 1 1 1 1 1 1 1 1 1 1 1 1 1 1 1
-1 -1 -1 -1 -1 -1 -1 -1 -1 -1 -1 -1 -1 -1 -1 -1 -1 -1 -1 -1 -0 -0 -0 -0 -0 -0 -0 -0 0 0 0 1 1 1 1 1 1 1 1 1 1 1 0
-1 -2 -2 -2 -2 -2 -2 -2 -2 -2 -2 -2 -2 -2 -2 -1 -1 -1 -1 -1 -1 -1 -1 -1 -1 -1 -1 -1 -1 -1 -0 -0 -0 -0 0 0 0 0 0 0 0 0 0
-2 -2 -2 -2 -2 -2 -2 -2 -2 -2 -2 -2 -2 -2 -2 -2 -2 -2 -2 -2 -2 -2 -1 -1 -1 -1 -1 -1 -1 -1 -1 -1 -1 -1 -1 -0 -0 -0 -0 -0 -0 -0 -0
-2 -3 -3 -3 -3 -3 -3 -3 -3 -3 -3 -3 -3 -3 -3 -3 -3 -2 -2 -2 -2 -2 -2 -2 -2 -2 -2 -2 -2 -2 -2 -1 -1 -1 -1 -1 -1 -1 -1 -1 -1 -1 -1
-3 -3 -3 -3 -3 -4 -4 -4 -4 -4 -4 -4 -4 -4 -4 -3 -3 -3 -3 -3 -3 -3 -3 -3 -3 -3 -3 -3 -3 -2 -2 -2 -2 -2 -2 -2 -2 -2 -2 -1 -1 -1 -2
-4 -4 -4 -4 -4 -4 -4 -4 -4 -4 -4 -4 -4 -4 -4 -4 -4 -4 -4 -4 -4 -4 -4 -4 -4 -3 -3 -3 -3 -3 -3 -3 -2 -2 -2 -2 -2 -2 -2 -2 -2 -2 -2
-4 -5 -5 -5 -5 -5 -5 -5 -5 -5 -5 -5 -5 -5 -5 -5 -5 -5 -4 -4 -4 -4 -4 -4 -4 -4 -4 -4 -4 -4 -4 -3 -3 -3 -3 -3 -3 -3 -3 -3 -3 -3 -3
-5 -5 -5 -5 -5 -5 -5 -5 -5 -6 -6 -6 -6 -6 -6 -6 -5 -5 -5 -5 -5 -5 -5 -5 -5 -5 -4 -4 -5 -5 -5 -4 -4 -4 -4 -4 -3 -3 -3 -3 -3 -3 -3
-5 -5 -5 -5 -5 -5 -6 -6 -6 -6 -6 -6 -6 -6 -6 -6 -6 -6 -6 -6 -6 -6 -6 -6 -5 -5 -5 -5 -5 -5 -5 -5 -5 -5 -5 -4 -4 -4 -4 -4 -4 -4 -4
-5 -5 -5 -5 -6 -6 -6 -6 -7 -7 -7 -7 -7 -7 -7 -7 -7 -6 -6 -6 -6 -6 -6 -6 -6 -6 -6 -6 -6 -6 -6 -6 -6 -6 -6 -5 -5 -5 -5 -5 -5 -5 -5
-6 -6 -6 -6 -6 -6 -7 -7 -7 -7 -7 -7 -7 -7 -7 -7 -7 -7 -7 -7 -7 -7 -7 -7 -7 -7 -7 -7 -7 -7 -7 -7 -7 -7 -6 -6 -6 -6 -6 -6 -6 -5 -5
-6 -6 -7 -7 -7 -7 -7 -7 -8 -8 -8 -8 -8 -8 -8 -8 -8 -8 -8 -8 -8 -7 -7 -7 -7 -7 -7 -7 -8 -8 -8 -8 -7 -7 -7 -7 -7 -7 -7 -6 -6 -6 -6
-7 -7 -7 -7 -7 -8 -8 -8 -8 -8 -8 -9 -9 -9 -9 -8 -8 -8 -8 -8 -8 -8 -8 -8 -8 -8 -8 -8 -8 -8 -8 -8 -8 -8 -8 -8 -8 -8 -7 -7 -7 -7 -7
-8 -8 -8 -8 -8 -8 -9 -9 -9 -9 -9 -9 -9 -9 -9 -9 -9 -9 -9 -9 -9 -9 -9 -9 -9 -9 -9 -9 -9 -9 -9 -9 -9 -9 -9 -9 -9 -8 -8 -8 -8 -8 -8
-8 -9 -9 -8 -9 -9 -9 -9 -10 -10 -10 -10 -10 -10 -10 -10 -10 -10 -10 -10 -10 -10 -10 -10 -10 -9 -9 -9 -10 -10 -10 -10 -10 -10 -9 -9 -9 -9 -9 -9 -9 -9 -9
-9 -9 -9 -9 -9 -10 -10 -10 -10 -11 -11 -10 -10 -10 -10 -10 -10 -10 -10 -10 -10 -10 -11 -11 -10 -10 -10 -10 -10 -10 -10 -10 -10 -10 -10 -10 -10 -10 -10 -9 -9 -9 -9
-10 -10 -10 -10 -10 -10 -10 -11 -11 -11 -11 -11 -11 -11 -11 -11 -11 -11 -11 -11 -11 -11 -11 -11 -11 -11 -11 -11 -11 -11 -11 -11 -11 -11 -11 -11 -10 -10 -10 -10 -10 -10 -10
-11 -11 -11 -11 -11 -11 -11 -11 -11 -12 -12 -12 -12 -11 -11 -11 -11 -11 -11 -11 -12 -12 -12 -12 -12 -12 -12 -11 -11 -11 -11 -11 -11 -11 -11 -11 -11 -11 -11 -11 -11 -11 -11
Wind_Speed
3 4 4 4 4 4 4 3 3 2 2 2 1 1 1 2 3 3 3 3 3 3 3 2 2 2 1 1 1 1 1 1 1 1 1 2 1 1 1 2 2 2 2
3 3 4 4 4 3 3 3 2 1 2 1 0 1 1 1 2 3 3 3 3 2 1 2 1 1 1 0 0 1 0 0 0 1 1 0 1 1 1 0 1 0 1
3 3 3 3 3 3 2 2 1 1 1 2 2 2 2 2 1 1 2 2 2 1 1 1 1 1 0 0 1 1 1 1 1 0 1 1 2 1 1 1 1 0 0
3 3 3 3 3 2 2 2 1 1 1 1 1 2 1 1 1 1 0 1 1 1 1 1 1 1 1 0 1 0 0 1 2 1 1 1 1 1 1 1 1 1 1
3 3 3 2 3 3 2 1 1 1 1 1 1 1 0 0 0 1 1 1 1 1 1 1 1 1 0 0 0 0 0 1 2 2 1 2 1 1 2 2 2 1 1
3 3 3 3 3 3 2 2 2 1 1 1 0 0 1 0 1 1 1 0 1 2 1 1 1 1 1 1 1 1 1 1 1 1 1 1 2 2 2 2 2 2 2
3 3 3 3 2 2 2 2 1 1 1 1 1 0 0 0 1 1 1 1 1 1 2 2 2 1 2 2 2 1 2 2 2 2 2 2 2 1 1 2 2 2 2
3 3 2 2 2 2 2 1 1 1 1 1 1 1 1 0 1 1 1 2 2 1 2 2 2 2 2 2 2 2 2 2 2 2 2 2 2 2 1 1 1 1 2
3 2 2 2 2 2 1 1 1 1 1 1 1 1 1 1 1 1 1 1 1 1 1 2 2 2 2 2 2 2 2 3 3 3 3 3 3 2 2 1 2 3 3
2 2 1 1 2 2 2 1 1 2 2 2 1 1 1 1 1 1 1 2 1 2 1 2 2 2 2 2 2 2 3 3 3 3 3 3 3 2 2 2 2 2 3
2 1 1 2 2 2 2 2 2 2 2 2 1 2 2 2 1 1 1 2 2 2 2 2 2 2 2 2 2 2 3 3 3 3 4 4 3 3 3 3 3 3 3
1 1 2 2 2 2 2 2 2 2 2 2 2 2 2 2 2 2 2 2 2 2 2 2 2 2 2 2 3 3 3 3 4 3 4 4 3 3 3 3 3 4 3
1 2 2 1 1 1 1 1 1 2 2 2 2 2 2 2 2 2 2 2 2 2 3 3 2 2 3 3 3 3 4 4 4 4 4 5 4 4 4 4 4 3 4
1 1 1 1 1 1 1 1 1 2 2 2 2 2 2 2 2 2 2 2 3 2 3 3 3 3 3 3 3 3 4 4 4 4 4 4 5 5 5 5 4 4 4
0 0 1 1 1 1 1 2 2 2 2 2 2 2 3 2 2 2 2 3 3 3 3 3 3 3 3 3 3 3 3 3 4 4 4 5 6 7 6 5 4 4 4
1 1 1 2 2 2 2 2 2 2 2 2 3 3 2 2 2 2 2 3 3 3 3 3 3 4 4 5 5 5 4 4 4 5 5 5 6 7 8 10 9 7 6
2 2 2 2 2 2 2 2 2 2 2 2 3 3 2 2 2 3 2 3 3 3 3 3 3 4 5 6 7 6 5 4 5 5 5 5 5 6 5 7 9 9 10
2 2 2 2 2 1 2 2 2 2 2 2 3 3 3 3 3 3 3 3 3 3 3 4 4 4 5 7 7 7 5 4 5 5 5 6 6 6 6 5 5 5 6
1 1 2 2 1 1 1 2 2 2 2 3 3 3 3 3 3 3 4 4 3 4 4 4 4 4 5 8 8 7 4 4 5 5 5 5 6 8 8 6 6 6 6
1 1 1 1 1 2 1 2 3 3 3 4 4 4 3 4 4 4 4 4 4 4 4 5 4 4 5 7 8 7 3 4 4 4 4 6 7 8 8 6 5 7 6
2 1 1 1 2 1 1 2 3 4 4 3 3 4 4 4 4 4 4 3 4 4 4 5 5 4 6 7 8 7 4 4 4 4 4 4 8 9 9 7 5 8 6
3 2 2 2 2 1 1 2 4 4 3 3 3 4 4 4 4 4 4 4 3 4 4 4 5 4 5 6 7 7 7 6 4 4 4 5 8 9 9 8 8 9 7
3 2 2 3 3 2 2 3 4 4 4 3 4 4 4 4 4 4 4 3 3 3 4 4 4 4 3 4 8 8 8 8 5 4 7 8 9 9 7 9 9 7 4
2 2 2 3 4 3 3 3 4 4 4 4 4 4 4 4 4 3 3 3 3 4 4 4 5 5 4 4 4 4 5 7 6 5 6 8 9 8 7 7 6 4 4
3 2 3 3 4 4 4 4 3 3 3 4 5 4 4 4 4 4 4 4 4 5 5 5 5 5 5 6 8 6 5 4 5 4 3 3 3 3 3 4 4 3 3
3 3 3 4 4 4 5 4 3 3 3 4 4 4 3 4 3 4 5 7 7 9 10 10 8 7 9 10 10 10 9 9 8 4 2 3 3 4 4 4 3 3 3
Wind_Direction
120 111 114 113 107 96 89 85 79 63 70 87 110 105 86 67 52 50 65 68 53 48 43 34 49 30 56 46 23 76 89 50 63 62 11 336 348 57 50 32 50 63 87
108 115 115 113 112 110 106 101 99 94 77 79 113 133 110 90 62 52 48 65 54 51 44 35 43 19 27 108 101 94 75 292 39 106 126 243 303 304 291 78 72 41 90
131 121 119 112 102 96 102 106 102 102 76 63 69 82 84 73 63 48 23 45 58 43 34 31 30 20 54 176 186 159 172 205 273 334 151 177 218 272 268 249 196 150 58
111 106 99 96 95 82 79 83 75 61 53 81 109 126 139 158 180 166 77 1 67 57 18 16 24 23 21 350 244 51 203 179 213 256 282 263 210 165 261 277 245 207 188
134 121 109 106 99 93 88 88 83 69 47 41 80 138 147 329 55 109 97 30 12 64 54 22 7 10 355 319 294 259 212 209 213 222 252 274 287 252 194 242 262 276 226
146 128 104 95 94 86 81 70 70 62 33 29 67 154 193 166 111 146 154 204 353 347 6 348 336 318 317 268 238 229 211 229 242 240 238 223 219 220 210 233 247 259 254
142 130 114 107 105 98 90 71 62 46 16 3 9 337 294 235 198 191 177 188 249 317 316 321 310 311 300 292 282 253 221 221 229 234 242 250 254 266 250 230 241 264 278
140 130 133 130 122 107 98 93 70 33 13 6 3 357 352 311 281 268 220 212 213 238 289 297 295 290 289 288 290 275 245 234 223 236 235 242 250 268 257 241 212 252 278
130 123 101 108 118 114 104 95 62 36 8 347 348 332 339 355 340 333 303 261 254 277 282 292 300 294 278 274 270 270 265 251 237 231 234 238 249 253 247 244 199 198 233
107 95 84 74 83 105 106 90 60 32 15 5 357 335 332 334 327 307 322 314 314 313 267 261 270 289 289 279 268 271 269 256 250 237 228 239 245 244 244 238 226 209 216
133 117 89 77 71 69 78 70 53 32 19 5 343 336 324 323 327 312 311 307 317 304 283 261 251 252 265 270 264 262 258 251 254 244 231 239 239 235 237 234 226 228 218
126 97 80 74 73 64 57 52 27 14 1 351 343 331 323 326 328 319 312 317 310 313 297 276 264 259 255 249 243 251 256 249 249 247 238 241 245 242 239 234 234 233 228
97 87 67 50 40 35 27 24 12 360 355 351 336 326 323 324 318 314 313 320 314 314 312 298 267 264 262 256 251 246 248 246 247 246 243 243 241 247 246 237 235 239 246
119 93 48 347 335 7 2 353 352 353 344 337 326 319 316 315 313 312 319 322 317 312 304 300 288 277 274 269 271 270 259 254 255 256 252 247 241 243 245 243 238 238 240
135 228 303 311 320 350 347 339 329 335 332 320 311 311 318 323 325 324 323 321 319 314 311 308 307 296 279 274 276 273 269 264 263 264 262 257 254 255 253 250 241 237 238
260 275 290 313 313 306 303 312 304 306 315 307 303 313 324 325 325 325 324 320 313 308 312 309 303 300 290 288 287 286 274 272 269 270 270 266 259 258 260 259 258 252 241
261 263 267 272 285 280 282 276 284 287 282 283 297 307 314 311 305 308 311 304 300 303 300 301 302 296 298 295 287 283 282 272 265 264 266 267 267 263 260 264 267 264 260
276 268 272 283 284 283 293 285 279 267 267 278 288 296 296 294 303 304 298 296 299 298 290 294 297 298 302 306 300 295 289 277 271 267 264 263 262 258 258 261 263 261 261
280 279 277 271 272 277 282 286 278 262 258 268 275 282 282 283 286 286 287 297 294 292 290 288 289 292 299 302 302 296 288 278 276 274 271 270 265 267 263 256 259 267 270
344 321 318 306 286 286 275 263 269 264 263 269 275 278 275 274 272 273 283 291 288 286 284 287 288 285 291 296 296 293 281 279 279 277 278 278 278 279 271 251 247 258 266
347 350 330 296 283 289 276 263 268 266 271 281 284 282 279 273 267 269 281 284 284 283 281 283 284 280 284 287 289 291 285 277 276 274 274 279 281 280 277 270 255 261 268
338 342 329 315 319 314 287 282 281 290 288 283 282 282 282 278 274 268 275 276 272 274 277 279 284 278 279 286 286 289 291 290 276 275 279 280 284 283 280 275 275 280 277
322 332 323 316 320 314 292 282 296 307 302 290 283 282 284 280 277 268 266 268 263 265 274 275 282 287 284 285 291 292 296 297 294 283 283 283 282 283 281 279 281 281 275
314 319 318 308 308 310 305 287 298 306 302 289 284 280 278 279 276 270 264 262 259 262 269 273 279 285 287 285 286 285 288 292 291 289 288 291 290 287 284 282 279 268 258
315 313 302 294 294 302 301 304 307 306 300 293 287 283 277 274 274 274 266 269 258 257 264 265 268 273 276 279 287 293 287 287 282 291 285 287 295 289 287 282 273 267 265
308 309 304 302 301 303 301 303 300 294 291 294 291 285 280 277 274 278 288 283 281 282 280 278 276 276 279 286 290 293 294 294 291 288 276 273 274 274 277 278 275 272 272
Height
1503 1503 1504 1504 1505 1506 1507 1508 1509 1511 1512 1513 1514 1515 1516 1517 1519 1520 1522 1522 1523 1524 1525 1525 1526 1527 1528 1529 1530 1531 1532 1533 1533 1534 1534 1535 1536 1536 1538 1538 1539 1540 1541
1501 1501 1502 1502 1503 1504 1505 1506 1507 1508 1509 1510 1512 1513 1513 1514 1516 1517 1518 1519 1520 1521 1522 1523 1523 1524 1525 1526 1527 1528 1529 1530 1531 1531 1532 1533 1534 1533 1534 1535 1536 1537 1538
1499 1500 1500 1500 1501 1502 1502 1503 1505 1506 1507 1508 1509 1510 1511 1512 1514 1514 1515 1516 1517 1518 1519 1520 1520 1521 1522 1523 1524 1525 1525 1526 1527 1529 1531 1531 1530 1530 1531 1531 1532 1533 1534
1498 1498 1498 1499 1499 1500 1501 1502 1502 1503 1504 1505 1506 1507 1507 1508 1509 1511 1512 1512 1513 1514 1515 1516 1517 1518 1518 1519 1520 1521 1522 1523 1524 1525 1527 1528 1528 1528 1527 1528 1529 1530 1531
1496 1496 1497 1497 1498 1498 1499 1500 1500 1501 1502 1502 1503 1504 1504 1505 1506 1507 1509 1509 1510 1511 1512 1513 1514 1514 1515 1516 1516 1517 1518 1519 1520 1521 1522 1524 1525 1525 1525 1524 1525 1526 1527
1494 1494 1495 1495 1496 1496 1496 1497 1497 1498 1499 1499 1500 1501 1501 1502 1503 1503 1504 1505 1506 1507 1508 1509 1510 1511 1511 1512 1513 1513 1514 1515 1516 1517 1518 1519 1520 1521 1522 1521 1521 1522 1523
1491 1492 1493 1493 1493 1493 1494 1494 1495 1495 1496 1496 1497 1498 1498 1499 1499 1500 1500 1501 1502 1503 1504 1505 1506 1507 1507 1508 1509 1509 1510 1510 1511 1512 1513 1515 1516 1517 1518 1519 1518 1519 1519
1490 1491 1491 1491 1491 1491 1491 1492 1492 1493 1493 1493 1494 1495 1495 1496 1496 1497 1497 1498 1499 1500 1501 1501 1501 1502 1503 1504 1505 1505 1505 1506 1507 1508 1509 1510 1512 1513 1514 1515 1515 1515 1515
1489 1489 1489 1489 1489 1489 1489 1490 1490 1490 1490 1491 1491 1492 1492 1492 1493 1493 1494 1495 1496 1496 1497 1497 1497 1498 1498 1499 1500 1500 1501 1502 1502 1503 1504 1506 1507 1508 1509 1510 1512 1513 1511
1487 1488 1488 1488 1488 1487 1487 1487 1487 1487 1488 1488 1488 1489 1489 1489 1490 1490 1490 1491 1492 1492 1493 1493 1494 1494 1494 1495 1495 1496 1496 1497 1497 1498 1499 1501 1502 1503 1504 1506 1507 1507 1508
1486 1486 1486 1486 1486 1486 1486 1485 1485 1485 1485 1485 1486 1486 1486 1487 1487 1487 1487 1488 1488 1489 1489 1490 1490 1489 1490 1490 1491 1491 1492 1492 1493 1494 1495 1496 1497 1498 1499 1501 1501 1502 1503
1485 1485 1485 1485 1484 1484 1484 1484 1483 1483 1483 1483 1483 1483 1483 1483 1483 1483 1484 1484 1485 1485 1485 1485 1485 1486 1486 1486 1486 1487 1487 1487 1488 1489 1490 1491 1492 1493 1494 1495 1496 1497 1498
1484 1483 1483 1482 1482 1482 1482 1481 1481 1481 1481 1480 1480 1480 1480 1480 1479 1480 1480 1480 1480 1480 1481 1481 1481 1482 1482 1482 1482 1482 1482 1483 1483 1484 1485 1486 1487 1488 1489 1490 1491 1492 1493
1482 1481 1481 1480 1480 1480 1479 1479 1479 1478 1478 1477 1477 1477 1476 1476 1476 1476 1476 1476 1476 1476 1477 1477 1477 1477 1478 1478 1478 1478 1478 1478 1478 1479 1480 1481 1482 1483 1484 1484 1485 1486 1487
1480 1480 1479 1479 1478 1477 1477 1476 1476 1475 1475 1474 1474 1473 1473 1473 1472 1472 1472 1472 1472 1472 1473 1473 1473 1473 1473 1473 1473 1473 1473 1473 1473 1474 1475 1476 1477 1477 1478 1479 1480 1481 1481
1478 1478 1477 1476 1475 1474 1474 1473 1473 1472 1472 1471 1471 1470 1470 1469 1469 1469 1468 1468 1468 1468 1468 1468 1468 1468 1469 1469 1469 1469 1469 1468 1468 1469 1469 1470 1471 1472 1473 1474 1474 1475 1476
1475 1475 1474 1473 1472 1471 1471 1470 1470 1469 1469 1468 1468 1467 1467 1466 1466 1466 1465 1465 1465 1464 1464 1464 1464 1464 1464 1465 1465 1465 1464 1464 1464 1464 1464 1464 1465 1466 1467 1468 1468 1469 1470
1472 1472 1471 1470 1469 1469 1468 1467 1467 1466 1466 1465 1464 1464 1464 1463 1463 1462 1462 1461 1461 1461 1460 1460 1460 1459 1459 1460 1460 1460 1459 1459 1459 1459 1459 1459 1460 1461 1461 1462 1462 1462 1463
1469 1469 1468 1467 1466 1465 1465 1464 1463 1463 1462 1462 1461 1461 1460 1460 1459 1459 1458 1458 1457 1457 1457 1456 1455 1455 1455 1455 1455 1455 1454 1454 1454 1454 1454 1454 1455 1455 1456 1456 1456 1456 1456
1466 1465 1464 1463 1463 1462 1461 1461 1460 1459 1459 1458 1458 1458 1457 1457 1456 1456 1455 1455 1454 1453 1453 1452 1452 1451 1451 1450 1450 1450 1450 1449 1449 1449 1449 1449 1450 1450 1451 1451 1451 1450 1451
1463 1462 1461 1460 1459 1458 1458 1457 1456 1456 1455 1455 1455 1454 1454 1453 1453 1452 1452 1451 1450 1450 1449 1448 1448 1447 1447 1446 1446 1446 1446 1445 1445 1444 1444 1444 1445 1445 1445 1446 1445 1445 1446
1460 1459 1458 1457 1456 1455 1454 1453 1453 1452 1452 1451 1451 1450 1450 1450 1449 1449 1448 1447 1446 1445 1444 1444 1443 1443 1443 1443 1442 1442 1442 1441 1441 1440 1440 1440 1440 1440 1440 1440 1440 1441 1441
1457 1456 1455 1454 1453 1453 1451 1450 1450 1449 1448 1447 1447 1446 1446 1446 1445 1444 1444 1443 1442 1441 1440 1440 1439 1438 1438 1438 1438 1437 1437 1437 1436 1435 1435 1435 1435 1435 1435 1435 1435 1435 1435
1454 1453 1452 1451 1450 1449 1448 1447 1447 1446 1445 1443 1443 1442 1441 1441 1441 1440 1440 1439 1438 1437 1437 1436 1435 1434 1434 1433 1433 1432 1432 1432 1431 1431 1430 1430 1430 1430 1430 1430 1430 1430 1430
1451 1450 1449 1448 1446 1446 1445 1444 1443 1442 1441 1440 1439 1438 1437 1437 1436 1436 1435 1435 1434 1434 1433 1432 1431 1430 1429 1429 1429 1428 1428 1427 1427 1426 1426 1425 1425 1425 1424 1424 1424 1425 1425
1448 1447 1446 1445 1443 1442 1441 1441 1440 1438 1437 1436 1435 1434 1433 1433 1432 1431 1431 1430 1430 1430 1429 1428 1428 1426 1426 1426 1425 1425 1424 1423 1423 1422 1421 1420 1420 1420 1420 1419 1419 1419 1419